When you browse on this site, cookies collect data to enhance your experience and personalize the content and advertising you see.
Visit our Privacy Policy to learn more. By continuing to use the site, you agree to this use of cookies and data.
  • In Sweden
  • List of Countries
  • For 7 days
  • Water Temperature
  • Satellite Maps
  • Weather Map
  • Weather Widgets
  • user-avatar
    Login

    Hourly Weather Pobeda

    Today, 18 January, Friday

    Time Temperature Precipitation Wind Pressure Humidity
    00:00 -2°C° 0 mm 6 mps 726 mmHg 88%
    01:00 -2°C° 0 mm 6 mps 726 mmHg 88%
    02:00 -2°C° 0 mm 6 mps 727 mmHg 88%
    03:00 -2°C° 0 mm 6 mps 727 mmHg 88%
    04:00 -2°C° 0 mm 6 mps 727 mmHg 88%
    05:00 -1°C° 0 mm 5 mps 728 mmHg 88%
    06:00 -2°C° 0.1 mm 5 mps 728 mmHg 88%
    07:00 -2°C° 0.1 mm 5 mps 729 mmHg 89%
    08:00 -2°C° 0.1 mm 5 mps 729 mmHg 90%
    09:00 -2°C° 0.1 mm 5 mps 729 mmHg 90%
    10:00 -2°C° 0.1 mm 5 mps 729 mmHg 90%
    11:00 -2°C° 0.1 mm 5 mps 729 mmHg 90%
    12:00 -1°C° 0.1 mm 4 mps 729 mmHg 91%
    13:00 -1°C° 0.1 mm 4 mps 729 mmHg 92%
    14:00 -1°C° 0.1 mm 4 mps 729 mmHg 93%
    15:00 -1°C° 0.3 mm 5 mps 728 mmHg 92%
    16:00 -1°C° 0.3 mm 5 mps 728 mmHg 91%
    17:00 -2°C° 0.3 mm 6 mps 728 mmHg 90%
    18:00 -2°C° 0.4 mm 6 mps 728 mmHg 90%
    19:00 -2°C° 0.4 mm 5 mps 729 mmHg 91%
    20:00 -4°C° 0.4 mm 5 mps 729 mmHg 91%
    21:00 -5°C° 0.1 mm 5 mps 730 mmHg 91%
    22:00 -7°C° 0.1 mm 4 mps 731 mmHg 90%
    23:00 -9°C° 0.1 mm 4 mps 732 mmHg 89%

    Tomorrow, 19 January, Saturday

    Time Temperature Precipitation Wind Pressure Humidity
    00:00 -9°C° 0 mm 3 mps 732 mmHg 91%
    01:00 -12°C° 0 mm 3 mps 733 mmHg 92%
    02:00 -13°C° 0 mm 3 mps 734 mmHg 93%
    03:00 -13°C° 0 mm 3 mps 734 mmHg 94%
    04:00 -12°C° 0 mm 3 mps 734 mmHg 94%
    05:00 -12°C° 0 mm 4 mps 735 mmHg 95%
    06:00 -12°C° 0 mm 4 mps 735 mmHg 93%
    07:00 -11°C° 0 mm 4 mps 735 mmHg 92%
    08:00 -10°C° 0 mm 4 mps 736 mmHg 91%
    09:00 -10°C° 0 mm 4 mps 736 mmHg 90%
    10:00 -9°C° 0 mm 4 mps 736 mmHg 89%
    11:00 -10°C° 0 mm 5 mps 736 mmHg 89%
    12:00 -8°C° 0.1 mm 5 mps 737 mmHg 88%
    13:00 -8°C° 0.1 mm 5 mps 737 mmHg 88%
    14:00 -8°C° 0.1 mm 5 mps 737 mmHg 88%
    15:00 -8°C° 0.1 mm 4 mps 737 mmHg 89%
    16:00 -8°C° 0.1 mm 4 mps 738 mmHg 89%
    17:00 -8°C° 0.1 mm 4 mps 738 mmHg 90%
    18:00 -8°C° 0 mm 4 mps 738 mmHg 90%
    19:00 -8°C° 0 mm 4 mps 739 mmHg 91%
    20:00 -7°C° 0 mm 3 mps 739 mmHg 91%
    21:00 -7°C° 0 mm 3 mps 739 mmHg 92%
    22:00 -8°C° 0 mm 3 mps 739 mmHg 92%
    23:00 -8°C° 0 mm 3 mps 739 mmHg 93%

    Day after tomorrow, 20 January, Sunday

    Time Temperature Precipitation Wind Pressure Humidity
    00:00 -8°C° 0 mm 3 mps 739 mmHg 93%
    01:00 -8°C° 0 mm 3 mps 739 mmHg 93%
    02:00 -9°C° 0 mm 4 mps 739 mmHg 93%
    03:00 -9°C° 0 mm 4 mps 739 mmHg 93%
    04:00 -8°C° 0 mm 4 mps 739 mmHg 92%
    05:00 -8°C° 0 mm 4 mps 739 mmHg 92%
    06:00 -7°C° 0 mm 4 mps 738 mmHg 91%
    07:00 -7°C° 0 mm 5 mps 738 mmHg 91%
    08:00 -7°C° 0 mm 5 mps 738 mmHg 90%
    09:00 -6°C° 0.1 mm 5 mps 738 mmHg 89%
    10:00 -6°C° 0.1 mm 6 mps 737 mmHg 87%
    11:00 -6°C° 0.1 mm 6 mps 737 mmHg 86%
    12:00 -6°C° 0.1 mm 6 mps 737 mmHg 86%
    13:00 -7°C° 0.1 mm 7 mps 736 mmHg 86%
    14:00 -7°C° 0.1 mm 7 mps 736 mmHg 86%
    15:00 -8°C° 0.1 mm 7 mps 736 mmHg 86%
    16:00 -8°C° 0.1 mm 6 mps 736 mmHg 86%
    17:00 -8°C° 0.1 mm 6 mps 736 mmHg 87%
    18:00 -8°C° 0.2 mm 6 mps 736 mmHg 88%
    19:00 -8°C° 0.2 mm 5 mps 736 mmHg 90%
    20:00 -8°C° 0.2 mm 5 mps 736 mmHg 91%
    21:00 -8°C° 0.3 mm 4 mps 736 mmHg 92%
    22:00 -7°C° 0.3 mm 3 mps 736 mmHg 93%
    23:00 -7°C° 0.3 mm 2 mps 736 mmHg 95%

    21 January, Monday

    Time Temperature Precipitation Wind Pressure Humidity
    00:00 -8°C° 0 mm 2 mps 736 mmHg 94%
    01:00 -10°C° 0 mm 2 mps 736 mmHg 94%
    02:00 -13°C° 0 mm 3 mps 736 mmHg 94%
    03:00 -14°C° 0 mm 2 mps 736 mmHg 96%
    04:00 -15°C° 0 mm 2 mps 736 mmHg 97%
    05:00 -16°C° 0 mm 2 mps 736 mmHg 98%
    06:00 -16°C° 0 mm 2 mps 737 mmHg 97%
    07:00 -15°C° 0 mm 2 mps 737 mmHg 96%
    08:00 -16°C° 0 mm 3 mps 737 mmHg 95%
    09:00 -15°C° 0 mm 3 mps 737 mmHg 94%
    10:00 -15°C° 0 mm 3 mps 738 mmHg 94%
    11:00 -15°C° 0 mm 3 mps 738 mmHg 93%
    12:00 -14°C° 0 mm 3 mps 738 mmHg 91%
    13:00 -13°C° 0 mm 3 mps 738 mmHg 90%
    14:00 -13°C° 0 mm 3 mps 738 mmHg 89%
    15:00 -13°C° 0 mm 3 mps 738 mmHg 89%
    16:00 -13°C° 0 mm 3 mps 739 mmHg 90%
    17:00 -14°C° 0 mm 3 mps 739 mmHg 90%
    18:00 -14°C° 0 mm 3 mps 739 mmHg 92%
    19:00 -15°C° 0 mm 3 mps 739 mmHg 93%
    20:00 -16°C° 0 mm 3 mps 740 mmHg 94%
    21:00 -16°C° 0 mm 3 mps 740 mmHg 95%
    22:00 -16°C° 0 mm 2 mps 740 mmHg 96%
    23:00 -17°C° 0 mm 2 mps 741 mmHg 97%

    22 January, Tuesday

    Time Temperature Precipitation Wind Pressure Humidity
    00:00 -17°C° 0 mm 2 mps 741 mmHg 97%
    01:00 -18°C° 0 mm 2 mps 741 mmHg 98%
    02:00 -18°C° 0 mm 2 mps 741 mmHg 98%
    03:00 -18°C° 0 mm 2 mps 741 mmHg 98%
    04:00 -19°C° 0 mm 2 mps 741 mmHg 98%
    05:00 -19°C° 0 mm 2 mps 741 mmHg 98%
    06:00 -17°C° 0 mm 1 mps 741 mmHg 98%
    07:00 -16°C° 0 mm 1 mps 741 mmHg 98%
    08:00 -16°C° 0 mm 1 mps 741 mmHg 98%
    09:00 -14°C° 0 mm 1 mps 741 mmHg 97%
    10:00 -14°C° 0 mm 2 mps 741 mmHg 96%
    11:00 -10°C° 0 mm 2 mps 741 mmHg 94%
    12:00 -10°C° 0.1 mm 2 mps 741 mmHg 94%
    13:00 -9°C° 0.1 mm 2 mps 741 mmHg 93%
    14:00 -9°C° 0.1 mm 3 mps 740 mmHg 93%
    15:00 -9°C° 0.2 mm 3 mps 740 mmHg 94%
    16:00 -10°C° 0.2 mm 3 mps 740 mmHg 94%
    17:00 -10°C° 0.2 mm 3 mps 740 mmHg 95%
    18:00 -10°C° 0.2 mm 3 mps 740 mmHg 95%
    19:00 -10°C° 0.2 mm 3 mps 740 mmHg 95%
    20:00 -9°C° 0.2 mm 2 mps 740 mmHg 95%
    21:00 -9°C° 0.1 mm 2 mps 740 mmHg 95%
    22:00 -9°C° 0.1 mm 2 mps 740 mmHg 96%
    23:00 -9°C° 0.1 mm 2 mps 740 mmHg 96%

    23 January, Wednesday

    Time Temperature Precipitation Wind Pressure Humidity
    00:00 -9°C° 0.1 mm 2 mps 740 mmHg 96%
    01:00 -9°C° 0.1 mm 2 mps 741 mmHg 96%
    02:00 -9°C° 0.1 mm 2 mps 741 mmHg 97%
    03:00 -10°C° 0.1 mm 2 mps 741 mmHg 96%
    04:00 -10°C° 0.1 mm 2 mps 741 mmHg 96%
    05:00 -10°C° 0.1 mm 2 mps 741 mmHg 96%
    06:00 -12°C° 0 mm 2 mps 741 mmHg 95%
    07:00 -13°C° 0 mm 2 mps 741 mmHg 94%
    08:00 -14°C° 0 mm 2 mps 741 mmHg 94%
    09:00 -14°C° 0 mm 2 mps 742 mmHg 92%
    10:00 -14°C° 0 mm 2 mps 742 mmHg 90%
    11:00 -15°C° 0 mm 3 mps 742 mmHg 88%
    12:00 -14°C° 0 mm 3 mps 742 mmHg 90%
    13:00 -13°C° 0 mm 3 mps 742 mmHg 92%
    14:00 -13°C° 0 mm 3 mps 742 mmHg 94%
    15:00 -12°C° 0 mm 3 mps 742 mmHg 94%
    16:00 -12°C° 0 mm 3 mps 742 mmHg 94%
    17:00 -12°C° 0 mm 3 mps 742 mmHg 94%
    18:00 -13°C° 0 mm 3 mps 742 mmHg 93%
    19:00 -13°C° 0 mm 3 mps 743 mmHg 92%
    20:00 -14°C° 0 mm 3 mps 743 mmHg 91%
    21:00 -15°C° 0 mm 3 mps 743 mmHg 91%
    22:00 -15°C° 0 mm 3 mps 743 mmHg 90%
    23:00 -16°C° 0 mm 3 mps 743 mmHg 90%
    Show more